Starlink 32853

operational
NORAD ID: 62818 Int'l Des: 2025-018 Owner: SPXS Country: US Constellation: starlink
LEOCIRCULAR

Über Starlink 32853

Beschreibung wird geladen...

Live-Position

3D-Globus wird geladen...

Nächste Überflüge

Höhenverlauf

Altitude vs Time

uPlot chart will show altitude changes over time

Zweizeiliger Elementsatz

1 62818U 25018N 25349.96577789 .00019632 00000-0 67290-3 0 9990
2 62818 53.1618 338.2199 0002013 86.6299 273.4932 15.30214917 50369
Epoch: 15. Dez. 2025 • Age: 12 hours

Aktueller Status

Höhe 476.9 km
Geschwindigkeit 7.63 km/s
Subsatellitenpunkt 36.20°N, 123.31°W
Startdatum 24. Jan. 2025
Alter 0.8 years
Typ internet

Technische Details

Klassifizierung Payload
Masse 730.00 kg
Trockenmasse 700.00 kg
Gesamtmasse 730.00 kg
Länge 0.30 m
Durchmesser 4.10 m
Spannweite 29.00 m
Form Box + pan
Hersteller SPXS
Bus-Typ Starlink V2M
Phasenstatus In Orbit
Besitzer/Staat SPXS/US

Große Konstellationen

Loading constellations...